Tracking 20382 objects as of 24-Feb-2020
HD Live streaming from Space Station
objects crossing your sky now
Track the group of recently launched Starlink satellites

SOLRAD 3/INJUN 1

Track SOLRAD 3/INJUN 1 now!
10-day predictions
SOLRAD 3/INJUN 1 is classified as:


NORAD ID: 117
Int'l Code: 1961-015B
Perigee: 884.1 km
Apogee: 988.5 km
Inclination: 66.8 °
Period: 103.6 minutes
Semi major axis: 7307 km
RCS: 0.4448 m2 (medium)
Launch date: June 29, 1961
Source: United States (US)
Launch site: AIR FORCE EASTERN TEST RANGE (AFETR)
aabbcc
Your satellite tracking list
Your tracking list is empty




NASA's NSSDC Master Catalog

Two Line Element Set (TLE):
1   117U 61015B   20055.48027845 -.00000077  00000-0 -48191-6 0  9997
2   117  66.8107 221.7368 0071465 111.1860 249.6873 13.89849164974203
Source of the keplerian elements: AFSPC